Wind_Speed
10 10 10 10 10 11 11 11 11 11 11 11 11 11 11 11 10 10 10 10 9 9 8 8 8 8 8 8 7 7 7 6 6 7 7 7 7 7 8 7 8 8 8
11 11 11 12 12 13 13 13 13 13 13 13 12 12 12 12 11 11 11 11 10 10 10 10 9 9 9 8 8 8 8 8 8 8 8 8 8 8 8 8 9 9 9
12 12 13 13 13 14 15 15 15 14 14 14 14 13 13 13 12 12 12 12 11 11 11 11 11 10 10 10 10 9 9 9 9 9 9 9 9 9 9 9 9 9 9
13 13 14 14 15 15 16 16 16 16 16 16 15 15 14 14 13 13 13 13 13 12 12 12 12 11 11 11 10 10 10 10 11 11 10 10 9 10 10 10 9 9 9
14 14 15 15 16 16 17 17 17 17 18 18 17 17 16 15 15 15 15 14 14 14 13 13 13 13 12 12 12 12 12 11 12 12 12 11 10 10 11 11 11 10 11
15 14 16 16 16 17 17 18 18 18 18 19 19 18 18 17 16 16 16 16 15 15 15 14 14 14 14 14 13 13 13 13 13 13 13 12 12 11 12 12 12 12 12
16 16 17 17 17 18 18 19 19 19 19 19 19 19 19 19 18 18 18 17 17 16 16 16 15 15 15 15 15 15 14 14 14 14 14 13 13 13 13 14 14 14 13
18 18 18 18 19 19 19 20 20 20 20 20 20 20 20 19 19 19 19 19 19 18 18 17 17 17 17 16 16 16 16 16 16 16 15 14 15 15 15 15 15 15 15
19 19 19 19 20 20 20 21 21 21 21 21 21 22 22 21 20 20 20 21 20 20 19 19 18 18 18 18 17 17 17 17 17 17 17 16 16 16 16 16 16 16 16
20 20 20 20 20 21 21 22 22 22 22 22 22 22 22 22 22 21 21 21 21 21 21 20 20 19 19 19 18 18 19 19 19 19 18 17 17 17 18 18 18 18 18
21 21 21 21 22 22 22 23 23 23 23 23 23 23 23 23 23 23 22 22 23 23 22 22 21 21 20 20 20 20 20 21 21 21 20 19 19 18 19 19 19 19 20
21 22 22 22 23 24 24 24 24 24 23 23 23 23 24 24 24 24 24 23 23 23 23 23 22 23 22 22 21 21 21 21 22 22 21 20 21 20 19 19 19 19 20
22 23 23 23 24 24 25 24 25 25 25 24 24 24 24 25 24 24 24 24 23 23 22 23 23 23 23 23 23 22 22 23 22 23 22 22 22 22 21 20 20 20 21
23 24 24 24 25 25 25 26 26 26 26 26 26 25 26 25 25 25 24 24 24 24 24 24 23 24 24 24 24 23 24 24 24 23 23 23 23 23 23 22 22 22 22
24 24 25 26 26 27 26 27 27 27 27 27 28 26 26 27 26 25 25 24 25 25 26 25 24 24 24 24 25 25 25 25 25 24 24 24 24 24 24 24 24 23 23
25 25 26 27 27 28 28 28 28 28 28 27 27 27 28 27 27 27 26 26 26 27 27 26 26 25 25 26 26 26 26 26 26 27 25 25 25 25 26 25 24 24 24
25 26 27 28 28 28 28 28 28 28 28 27 28 29 29 29 28 28 28 28 28 28 28 28 27 27 27 26 26 26 26 26 27 27 26 25 26 26 26 26 25 25 25
27 27 28 29 29 28 28 28 28 28 29 29 29 29 29 29 29 29 28 28 29 29 29 28 27 28 28 27 27 28 27 27 26 26 27 27 26 26 26 26 26 26 26
28 28 28 29 29 29 28 28 28 29 29 30 30 29 29 30 30 29 29 29 29 29 28 28 27 28 29 28 28 28 27 27 26 27 28 28 27 27 27 26 26 26 26
28 28 28 28 29 29 29 28 28 29 30 30 31 30 31 31 30 30 30 30 29 29 29 28 28 28 28 28 29 28 27 27 27 26 27 27 27 28 27 27 27 27 27
28 29 28 29 29 29 29 29 28 28 30 30 31 30 31 32 31 30 30 30 29 29 29 29 29 29 28 28 29 29 29 28 28 28 28 27 27 27 27 27 27 27 28
29 29 29 29 30 30 30 29 28 29 30 31 31 31 31 31 31 31 31 30 29 29 28 29 29 29 29 29 30 30 29 28 28 29 29 29 29 28 28 28 27 28 28
29 29 29 29 30 30 30 30 30 30 31 31 30 30 30 31 31 30 30 29 28 28 28 29 29 29 29 29 30 30 30 29 29 29 30 30 29 28 28 28 28 28 28
30 30 29 30 30 30 30 30 30 30 30 30 30 30 30 30 30 29 29 28 28 28 28 28 29 29 29 28 29 29 29 29 29 29 29 29 29 29 28 28 29 29 29
30 30 30 29 29 29 30 30 29 29 29 30 29 29 28 28 27 27 26 27 27 26 27 27 28 28 27 27 27 28 28 28 28 28 27 28 28 28 27 28 28 28 28
31 30 30 29 29 29 29 29 28 28 29 28 28 27 26 26 26 25 25 25 25 25 25 26 27 26 26 26 26 27 27 27 27 26 26 26 27 26 27 27 27 27 28
Wind_Direction
329 326 326 324 321 319 318 315 313 311 309 309 308 305 304 300 294 291 288 287 285 282 280 278 277 279 279 281 282 284 284 281 280 277 275 275 274 269 265 260 257 254 252
327 325 323 320 319 318 316 313 310 308 305 303 302 300 300 297 294 290 288 286 284 281 280 278 276 276 277 280 279 280 281 276 274 271 271 273 271 265 262 262 258 251 247
325 325 324 319 317 316 314 310 306 305 302 299 298 297 296 295 293 289 288 287 285 283 280 279 276 274 275 276 276 276 275 272 271 270 271 271 268 263 260 260 256 254 250
326 325 324 319 315 312 311 308 305 304 302 298 296 295 294 293 291 290 289 287 285 285 283 280 278 275 275 275 273 272 272 270 269 267 266 265 265 262 258 256 255 256 252
322 324 324 321 316 311 309 307 305 303 301 298 295 295 294 292 291 289 289 287 285 284 283 282 279 276 274 274 273 271 270 269 268 265 262 262 260 260 259 257 257 255 254
320 321 320 321 318 314 311 308 304 302 300 298 296 295 295 293 290 289 289 287 286 284 283 281 279 277 275 273 271 271 269 268 268 266 265 261 261 261 261 260 259 257 255
321 320 320 320 318 315 313 310 306 303 301 298 296 295 295 294 290 289 289 286 285 284 283 281 278 277 276 274 272 270 269 268 267 265 266 265 264 261 262 262 261 259 258
319 319 318 319 317 315 313 311 307 303 301 299 297 294 292 291 290 288 288 286 284 283 282 281 280 278 278 276 273 272 270 268 268 267 266 265 265 263 262 262 261 259 259
314 315 317 318 316 315 314 310 307 303 301 301 299 296 291 289 288 286 287 286 285 284 282 280 279 277 277 276 273 272 271 271 270 267 266 265 264 263 263 264 263 260 259
312 313 315 315 315 314 313 309 306 304 302 301 300 298 293 289 288 287 286 285 284 283 282 279 277 276 275 275 273 271 270 271 269 268 266 264 263 263 264 265 264 261 258
310 311 312 312 312 312 312 310 306 304 304 301 296 295 293 290 288 288 286 284 283 281 280 278 278 276 275 274 273 271 270 270 269 269 268 266 264 262 263 264 265 263 258
308 309 309 310 309 309 308 308 307 305 304 302 298 296 294 291 290 289 286 284 282 281 279 279 278 276 275 273 273 272 270 270 267 267 267 265 265 263 262 264 265 265 263
306 306 306 307 307 307 306 306 305 304 302 301 300 298 294 292 292 291 287 283 281 281 279 279 277 276 275 274 272 270 270 271 269 267 266 264 265 264 265 265 264 264 265
304 305 306 305 306 306 306 304 303 302 301 300 298 298 296 296 294 290 288 285 282 282 281 280 278 275 274 273 271 269 269 269 269 268 268 266 265 264 264 264 264 264 264
302 303 303 303 305 305 304 303 303 302 302 301 300 300 300 298 296 294 289 288 286 284 282 280 277 277 276 273 272 270 269 270 269 268 266 265 264 264 263 264 264 262 262
300 301 303 301 302 303 303 302 302 302 302 301 301 300 299 298 297 294 290 290 290 287 285 282 277 277 278 276 272 271 269 268 268 268 268 267 265 264 264 263 263 261 261
300 299 302 303 302 303 302 301 301 300 300 300 301 300 298 298 296 294 291 291 290 287 285 282 278 277 278 278 276 273 270 268 269 268 268 268 266 264 263 262 262 262 263
300 299 300 301 301 301 300 300 300 300 299 299 299 299 297 297 295 294 293 292 290 289 288 285 281 279 279 277 276 274 271 270 269 268 270 269 268 265 262 261 261 261 262
300 300 298 298 299 298 299 297 296 298 298 298 298 298 298 297 295 295 295 293 290 290 289 285 281 281 278 277 276 274 270 270 271 270 270 270 268 264 263 262 262 260 260
301 300 299 298 298 297 296 296 296 296 296 296 296 298 297 297 295 295 295 292 289 287 287 286 282 280 279 278 277 273 271 271 272 270 270 270 267 265 263 262 261 260 259
301 300 298 297 297 295 296 294 295 296 296 295 296 296 295 296 294 294 294 293 291 290 289 286 283 280 279 277 276 275 272 273 273 271 271 271 269 266 263 262 260 260 260
302 300 299 297 295 295 295 298 297 296 296 296 296 296 296 296 294 294 293 292 292 291 290 289 286 282 278 276 275 275 274 272 273 271 271 270 268 265 264 264 262 261 260
302 299 298 297 295 294 296 296 297 298 300 298 298 299 296 296 296 296 295 293 292 291 292 290 287 284 280 277 275 275 273 271 271 270 271 269 268 266 265 264 263 262 260
301 300 299 298 296 295 296 296 297 298 299 301 301 300 298 297 296 296 295 292 291 292 293 291 288 284 281 278 275 274 273 273 273 271 270 269 267 266 266 265 263 262 262
302 302 302 301 298 297 296 296 298 299 300 301 301 301 300 299 297 296 295 294 293 292 294 293 291 286 282 279 276 274 272 272 273 271 270 269 267 265 265 265 263 261 259
301 300 301 301 299 297 297 297 297 299 300 300 301 301 301 300 298 296 295 295 293 292 293 293 292 288 284 282 279 277 274 273 273 272 272 271 267 265 265 264 262 261 260
Height
5895 5893 5893 5892 5891 5890 5889 5888 5887 5887 5886 5885 5884 5883 5882 5881 5880 5879 5878 5877 5876 5876 5875 5875 5874 5874 5873 5873 5872 5872 5872 5871 5871 5871 5871 5871 5871 5871 5871 5871 5872 5873 5873
5894 5892 5892 5891 5890 5889 5888 5887 5886 5885 5884 5883 5882 5881 5880 5879 5878 5877 5876 5876 5875 5874 5873 5873 5872 5872 5872 5871 5871 5870 5870 5870 5870 5870 5870 5870 5869 5869 5870 5870 5871 5871 5872
5893 5891 5890 5889 5888 5887 5886 5885 5884 5883 5882 5881 5880 5879 5878 5877 5876 5875 5874 5874 5873 5872 5872 5871 5871 5870 5870 5870 5869 5869 5869 5868 5868 5868 5868 5868 5868 5868 5868 5869 5869 5870 5870
5892 5890 5889 5887 5886 5885 5884 5883 5882 5881 5880 5879 5878 5877 5876 5875 5874 5873 5872 5872 5871 5870 5869 5869 5868 5868 5868 5868 5867 5867 5867 5866 5866 5866 5866 5866 5866 5866 5867 5867 5867 5868 5869
5891 5889 5887 5886 5884 5883 5882 5880 5879 5878 5877 5876 5875 5874 5873 5872 5871 5871 5870 5869 5869 5868 5867 5867 5866 5866 5865 5865 5865 5865 5865 5864 5864 5864 5864 5864 5864 5864 5865 5865 5865 5866 5867
5889 5888 5886 5884 5882 5881 5879 5878 5877 5876 5874 5873 5872 5871 5870 5869 5869 5868 5867 5866 5866 5865 5865 5864 5864 5863 5863 5863 5862 5862 5862 5862 5861 5861 5861 5861 5861 5862 5862 5863 5863 5864 5864
5887 5886 5884 5882 5880 5879 5877 5875 5874 5873 5871 5870 5869 5868 5867 5866 5866 5865 5864 5863 5863 5862 5862 5861 5861 5860 5860 5860 5859 5859 5859 5859 5859 5859 5859 5859 5859 5860 5860 5860 5861 5861 5862
5885 5883 5882 5880 5878 5876 5874 5873 5871 5870 5868 5867 5866 5865 5863 5862 5862 5861 5860 5860 5859 5859 5858 5858 5857 5857 5857 5856 5856 5856 5856 5856 5856 5856 5856 5857 5857 5857 5857 5857 5858 5859 5859
5882 5881 5879 5877 5875 5874 5872 5870 5868 5867 5865 5864 5862 5861 5860 5859 5858 5857 5857 5856 5855 5855 5854 5854 5854 5853 5853 5853 5853 5853 5853 5853 5852 5852 5853 5853 5853 5853 5853 5854 5855 5855 5856
5879 5877 5876 5875 5873 5871 5869 5867 5865 5863 5862 5860 5858 5857 5855 5854 5854 5853 5852 5852 5851 5851 5850 5850 5849 5849 5849 5849 5849 5849 5849 5849 5849 5848 5849 5850 5849 5849 5850 5851 5851 5852 5852
5876 5874 5873 5871 5869 5868 5866 5864 5862 5860 5858 5856 5854 5852 5851 5850 5849 5848 5848 5847 5846 5846 5845 5845 5845 5845 5845 5844 5844 5844 5844 5844 5844 5845 5845 5845 5846 5846 5846 5847 5847 5848 5848
5873 5871 5870 5868 5866 5864 5862 5860 5858 5856 5855 5852 5850 5848 5847 5845 5845 5844 5843 5842 5841 5841 5840 5840 5840 5840 5840 5840 5840 5840 5840 5839 5840 5840 5840 5841 5842 5842 5842 5842 5843 5843 5844
5870 5868 5866 5864 5862 5860 5858 5856 5854 5852 5850 5848 5847 5844 5842 5841 5840 5839 5838 5838 5836 5836 5835 5835 5835 5835 5835 5835 5835 5835 5834 5834 5835 5835 5835 5835 5836 5836 5837 5838 5838 5839 5840
5865 5864 5862 5860 5858 5856 5854 5852 5850 5848 5846 5844 5842 5840 5838 5836 5835 5834 5833 5833 5832 5831 5830 5830 5829 5829 5829 5829 5829 5829 5829 5829 5830 5830 5830 5830 5831 5832 5832 5833 5834 5835 5835
5862 5860 5858 5855 5853 5851 5849 5847 5845 5843 5841 5839 5837 5835 5834 5832 5830 5828 5828 5827 5827 5826 5825 5824 5823 5823 5823 5823 5823 5824 5824 5824 5824 5824 5825 5826 5825 5826 5827 5828 5829 5829 5830
5857 5855 5853 5850 5847 5846 5844 5842 5840 5838 5836 5834 5832 5830 5829 5826 5825 5823 5822 5822 5821 5820 5819 5818 5817 5817 5817 5817 5817 5817 5818 5818 5818 5818 5819 5820 5820 5821 5821 5822 5823 5824 5824
5852 5850 5848 5845 5843 5841 5839 5837 5835 5832 5830 5829 5827 5825 5823 5821 5820 5818 5817 5816 5815 5813 5812 5811 5811 5810 5811 5811 5810 5811 5811 5812 5812 5812 5812 5813 5814 5814 5815 5816 5816 5817 5818
5848 5845 5843 5841 5838 5836 5834 5831 5829 5827 5825 5823 5821 5819 5817 5815 5814 5812 5811 5810 5808 5807 5806 5805 5804 5804 5804 5804 5804 5804 5804 5805 5805 5805 5806 5807 5807 5808 5809 5809 5810 5810 5812
5843 5840 5837 5835 5833 5831 5828 5826 5824 5821 5819 5817 5816 5813 5812 5810 5808 5806 5805 5803 5802 5800 5799 5798 5798 5798 5797 5797 5796 5797 5797 5798 5798 5799 5799 5799 5800 5801 5801 5802 5802 5803 5805
5837 5834 5831 5829 5827 5824 5822 5820 5818 5816 5814 5811 5809 5807 5805 5804 5802 5800 5798 5796 5795 5794 5793 5792 5791 5790 5790 5789 5789 5790 5790 5790 5791 5791 5791 5792 5792 5793 5793 5795 5795 5796 5798
5830 5828 5826 5823 5820 5817 5815 5813 5811 5809 5807 5805 5802 5800 5799 5797 5795 5793 5791 5790 5788 5787 5786 5784 5783 5783 5782 5782 5782 5782 5783 5783 5783 5784 5784 5784 5785 5785 5786 5787 5788 5789 5791
5824 5822 5820 5817 5814 5811 5809 5806 5805 5803 5801 5798 5795 5794 5792 5790 5788 5786 5785 5783 5781 5780 5778 5778 5776 5776 5775 5775 5775 5774 5775 5776 5775 5776 5776 5777 5777 5778 5779 5780 5781 5782 5783
5819 5816 5813 5811 5809 5806 5803 5801 5799 5797 5795 5792 5790 5787 5785 5783 5781 5779 5777 5776 5774 5773 5772 5770 5769 5769 5768 5767 5767 5767 5767 5767 5768 5768 5768 5768 5769 5770 5771 5771 5773 5774 5775
5813 5810 5807 5805 5802 5800 5797 5794 5792 5790 5788 5786 5783 5780 5778 5775 5773 5771 5770 5769 5767 5766 5764 5763 5762 5761 5760 5760 5759 5759 5759 5759 5759 5760 5760 5760 5761 5762 5762 5763 5764 5766 5767
5807 5804 5801 5798 5795 5793 5791 5788 5785 5784 5782 5779 5777 5774 5771 5768 5766 5764 5763 5761 5760 5759 5757 5756 5755 5753 5753 5752 5752 5751 5751 5751 5751 5751 5752 5752 5752 5753 5754 5755 5756 5757 5759
5800 5798 5795 5792 5789 5786 5784 5782 5779 5777 5775 5773 5770 5767 5765 5762 5760 5758 5757 5755 5754 5752 5751 5750 5748 5746 5745 5745 5744 5744 5744 5744 5744 5744 5744 5744 5745 5745 5746 5747 5748 5749 5750